Regional Weather Roundup
Issued by NWS Goodland, KS

Home | Current Version | Previous Version | Graphics & Text | Print | Product List | Glossary On
Versions: 1 2 3 4 5 6 7 8 9 10 11 12 13 14 15 16 17 18 19 20 21 22 23 24 25 26 27 28 29 30 31 32 33 34 35 36 37 38 39 40 41 42 43 44 45 46 47 48 49 50
000
ASUS43 KGLD 270408
RWRGLD

GOODLAND FORECAST AREA HOURLY WEATHER ROUNDUP
NATIONAL WEATHER SERVICE GOODLAND KS
1000 PM MDT TUE MAY 26 2015

...OFFICIAL OBSERVATIONS...

CITY           SKY/WX    TMP DP  RH WIND       PRES   REMARKS
GOODLAND KS    PTCLDY    55  52  89 SE6       30.04R
HILL CITY KS   CLEAR     55  50  83 SE3       30.02R
IMPERIAL NEB   PTCLDY    54  49  83 SE7       30.04R
MCCOOK NEB     CLEAR     56  48  74 NE5       30.03R
AKRON CO       PTCLDY    55  49  80 SE10      30.07R
BURLINGTON CO  PTCLDY    55  50  83 S9        30.07R
LIMON CO       CLOUDY    55  49  80 SE7       30.11R
$$

...UNOFFICIAL OBSERVATIONS...

CITY           SKY/WX    TMP DP  RH WIND       PRES   REMARKS
COLBY KS       CLEAR     57  55  94 E6        30.04S
GOVE KS          N/A     59  32  36 MISG        N/A
LENORA KS        N/A     61  32  33 MISG        N/A
NORTON KS      CLEAR     55  45  67 CALM      30.02R
SHARON SPRINGS   N/A     58  53  85 MISG        N/A
TRENTON NEB      N/A     58  32  37 E7          N/A
KIT CARSON CO    N/A     57  52  83 MISG        N/A
$$


USA.gov is the U.S. government's official web portal to all federal, state and local government web resources and services.